Other Surface Observations
Issued by NWS Charleston, SC

Home | Current Version | Previous Version | Text Only | Print | Product List | Glossary On
Versions: 1 2 3 4 5 6 7 8 9 10 11 12 13 14 15 16 17 18 19 20 21 22 23 24 25 26 27 28 29 30 31 32 33 34 35 36 37 38 39 40 41 42 43 44 45 46 47 48 49 50
000
SXUS52 KCHS 291226
OSOCHS

MARINE OBSERVATIONS
NATIONAL WEATHER SERVICE CHARLESTON SC
800 AM EDT FRI MAY 29 2015

...DOWNTOWN CHARLESTON AND HARBOR...

CITY           SKY/WX    TMP DP  RH WIND       PRES   REMARKS
WATERFRONT PRK   N/A     72  68  87 N6        30.16R
FORT JOHNSON   NOT AVBL

...LAKE MOULTRIE...

CITY           SKY/WX    TMP DP  RH WIND       PRES   REMARKS
PINOPOLIS        N/A     73  66  78 E7        30.11R

...LAKE AND SUPPLEMENTAL COASTAL OBSERVATIONS...

STATION/POSITION TIME  TEMP    WIND        PRES    WAVE   SWELL
                       AIR SEA DIR/SP/G            HT/PER HT/PER/DIR
                 (UTC) (F)     (DEG/KT/KT) (MB)    (FT/S) (FT/S/D)
FORT PULASKI     1200   76 79   70/  9/ 10 1022.2R
SAPELO ISLAND    1200   80     100/  4     1021.0S
UPR LAKE MARION  NOT AVBL
WINYAH BAY       1145   73      10/  3     1021.0R
LAKE MURRAY      1200   71     120/  3/  5 1023.0R
ACE BASIN NERRS  NOT AVBL


...C-MAN AND BUOY OBSERVATIONS...

STATION/POSITION TIME  TEMP    WIND        PRES    WAVE   SWELL
                       AIR SEA DIR/SP/G            HT/PER HT/PER/DIR
                 (UTC) (F)     (DEG/KT/KT) (MB)    (FT/S) (FT/S/D)
BUOY 41004       1150   77 78   60/ 10/ 12 1021.2R   4/ 9   3/ 9
BUOY 41008       1150   77 78   90/  8/ 10 1021.1R   3/ 9   3/100/ 9
FOLLY BEACH CMAN 1200   76      30/  7/  8 1022.3R
CAPERS NS BUOY   1108   76      70/  8/ 10 1021.6R
FRIPP NS BUOY    1100   76      90/  8/ 12 1021.0R
5E ST. MARYS GA  1121      79                N/A     3/ 8


STATION/POSITION TIME  TEMP    WIND        PRES    WAVE   SWELL
                       AIR SEA DIR/SP/G            HT/PER HT/PER/DIR
                 (UTC) (F)     (DEG/KT/KT) (MB)    (FT/S) (FT/S/D)
FRYING PAN BUOY  1150   76 75   50/ 12/ 16 1023.0R   4/10   3/130/10
BUOY 41025       1150   75 76   40/  6/  8 1023.8R   4/ 9   3/110/ 9
CAPE LOOKOUT NC  1200   74      40/  8/  8 1023.5R
BUOY 41002       1150   75 74   80/ 16/ 19 1021.5R   5/ 9   3/ 90/ 9
BUOY 41010       1120   76 81   80/ 12/ 16 1018.9R
ST AUGUSTINE FL  1200   76 77  100/  9/ 10 1020.6R

$$



USA.gov is the U.S. government's official web portal to all federal, state and local government web resources and services.